Overview Statistics Trail Chart Weather Telemetry Raw packets
 

This is the latest recevied weather packets stored in our database for station/object JF7BTK-10. If no packets are shown the sender has not sent any weather packets the latest 10 day(s).

<< 60 61 62 63 64 65 66 >>
Time Temp. Humidity Pressure Rain* Wind** Luminosity Snow
1787891451 25.56° C 67% 1003.8 hPa 0 mm - - -
1787891287 25.56° C 65% 1003.8 hPa 0 mm - - -
1787890851 25.56° C 68% 1004 hPa 0 mm - - -
1787890388 26.11° C 67% 1003.9 hPa 0 mm - - -
1787889652 25.56° C 70% 1003.9 hPa 0 mm - - -
1787889488 25.56° C 71% 1003.7 hPa 0 mm - - -
1787889351 25° C 71% 1003.8 hPa 0 mm - - -
1787888588 25.56° C 69% 1003.7 hPa 0 mm - - -
1787888150 25° C 70% 1003.7 hPa 0 mm - - -
1787887688 25° C 70% 1004 hPa 0 mm - - -
1787886788 25.56° C 70% 1003.7 hPa 0 mm - - -
1787886350 25° C 68% 1003.8 hPa 0 mm - - -
1787885887 25.56° C 64% 1003.8 hPa 0 mm - - -
1787884987 25.56° C 63% 1003.5 hPa 0 mm - - -
1787884091 25.56° C 63% 1003.4 hPa 0 mm - - -
1787883950 26.11° C 62% 1003.5 hPa 0 mm - - -
1787883188 26.11° C 63% 1003.4 hPa 0 mm - - -
1787882288 26.11° C 64% 1003.4 hPa 0 mm - - -
1787881387 25.56° C 66% 1003.6 hPa 0 mm - - -
1787880487 26.11° C 63% 1003.5 hPa 0 mm - - -
1787879587 25.56° C 63% 1003.3 hPa 0 mm - - -
1787878687 26.11° C 62% 1003.3 hPa 0.25 mm - - -
1787877787 26.11° C 64% 1003.5 hPa 0.25 mm - - -
1787876888 25.56° C 64% 1003.4 hPa 0.25 mm - - -
1787875987 25° C 68% 1003.2 hPa 0.25 mm - - -

* Rain latest hour (hover to see other rain measurements)
** Current wind speed in m/s (hover to see current wind gust speed)